Weather History for Bettles, AK

Change the Weather History Date:

Monday, December 17, 2012

  Actual Average Record
Temperature  
Mean Temperature -28 °F -  
Max Temperature -9 °F 4 °F 30 °F (1952)
Min Temperature -47 °F -12 °F -48 °F (1977)
Degree Days  
Heating Degree Days 93    
Moisture  
Dew Point -23 °F    
Average Humidity 73    
Maximum Humidity 79    
Minimum Humidity 59    
Precipitation  
Precipitation 0.00 in - - ()
Snow  
Snow 0.00 in - - ()
Snow Depth 5.00 in    
Sea Level Pressure  
Sea Level Pressure 29.87 in    
Wind  
Wind Speed 4 mph (NNW)    
Max Wind Speed 9 mph    
Max Gust Speed -    
Visibility 10 miles    
Events Fog    
Averages and records for this station are not official NWS values.
T = Trace of Precipitation, MM = Missing Value Source: NWS Daily Summary

Daily Weather History Graph

Daily Weather History Graph

Search for Another Location

Airport:

Trip Planner

Search our weather history database for the weather conditions in past years. The results will help you decide how hot, cold, wet, or windy it might be!

Date:

Astronomy

Dec. 17, 2012 Rise Set
Actual Time 12:10 PM AKST 1:54 PM AKST
Civil Twilight 10:08 AM AKST 3:57 PM AKST
Nautical Twilight 8:46 AM AKST 5:19 PM AKST
Astronomical Twilight 7:38 AM AKST 6:26 PM AKST
Moon 12:24 PM AKST (12/17) 10:40 PM AKST (12/17)
Length of Visible Light 5h 48m
Length of Day
1h 44m
Waxing Crescent, 26% of the Moon is Illuminated
Dec 17
Waxing Crescent
Dec 19
First Quarter
Dec 28
Full
Jan 4
Last Quarter
Jan 11
New

Hourly Weather History & Observations

Time (AKST) Temp. Windchill Dew Point Humidity Pressure Visibility Wind Dir Wind Speed Gust Speed Precip Events Conditions
12:53 AM -44.0 °F - - N/A% 30.02 in 10.0 mi Calm Calm - N/A Fog Patches of Fog
1:53 AM -42.0 °F -55.8 °F - N/A% 30.02 in 10.0 mi NNE 3.5 mph - N/A Fog Patches of Fog
3:53 AM -41.1 °F - - N/A% 30.02 in 10.0 mi Calm Calm - N/A Fog Patches of Fog
4:53 AM -42.0 °F - - N/A% 30.02 in 10.0 mi Calm Calm - N/A Fog Patches of Fog
5:53 AM -36.9 °F -57.4 °F - N/A% 30.01 in 10.0 mi NNW 6.9 mph - N/A Fog Patches of Fog
6:28 AM -36.4 °F -54.8 °F - N/A% 29.86 in 7.0 mi NNW 5.8 mph - N/A Fog Patches of Fog
6:53 AM -36.9 °F -55.4 °F - N/A% 29.99 in 10.0 mi NNW 5.8 mph - N/A Fog Patches of Fog
7:53 AM -36.0 °F -56.3 °F - N/A% 29.99 in 10.0 mi NNW 6.9 mph - N/A   Clear
8:53 AM -35.0 °F -47.8 °F - N/A% 29.96 in 10.0 mi North 3.5 mph - N/A   Clear
9:53 AM -32.1 °F -49.6 °F - N/A% 29.94 in 10.0 mi NNW 5.8 mph - N/A   Clear
10:53 AM -29.9 °F -50.6 °F - N/A% 29.91 in 10.0 mi NNW 8.1 mph - N/A   Partly Cloudy
11:53 AM -29.0 °F -47.9 °F -35.0 °F 73% 29.90 in 10.0 mi NNW 6.9 mph - N/A   Partly Cloudy
12:53 PM -27.0 °F -47.1 °F -34.1 °F 69% 29.88 in 10.0 mi NNW 8.1 mph - N/A   Scattered Clouds
3:53 PM -20.9 °F -41.0 °F -27.0 °F 73% 29.81 in 10.0 mi North 9.2 mph - N/A   Mostly Cloudy
4:53 PM -18.0 °F -30.9 °F -24.0 °F 74% 29.79 in 10.0 mi North 4.6 mph - N/A   Mostly Cloudy
5:53 PM -15.0 °F -32.4 °F -20.9 °F 75% 29.76 in 10.0 mi North 8.1 mph - N/A   Overcast
6:53 PM -14.1 °F -23.9 °F -18.9 °F 79% 29.74 in 10.0 mi North 3.5 mph - N/A   Overcast
7:53 PM -14.1 °F -28.3 °F -20.0 °F 75% 29.72 in 10.0 mi NW 5.8 mph - N/A   Overcast
8:53 PM -14.1 °F -29.9 °F -18.9 °F 79% 29.70 in 10.0 mi WNW 6.9 mph - N/A   Overcast
9:53 PM -13.0 °F -25.1 °F -18.0 °F 78% 29.68 in 10.0 mi WNW 4.6 mph - N/A   Overcast
10:53 PM -9.9 °F -21.5 °F -15.0 °F 78% 29.66 in 10.0 mi NW 4.6 mph - N/A   Overcast
11:53 PM -9.9 °F -19.2 °F -16.1 °F 74% 29.65 in 10.0 mi WNW 3.5 mph - N/A   Overcast